Eugene, OR

11:56 PM PST on November 11, 2019 (GMT -0800)
Mahlon Sweet

Weather History for KEUG - September, 2019

Change the Weather History Date:

Monday, September 9, 2019

  Actual Average Record
Temperature  
Mean Temperature 63 °F 64 °F  
Max Temperature 66 °F 79 °F 97 °F (1948)
Min Temperature 59 °F 48 °F 38 °F (1928)
Degree Days  
Heating Degree Days 2 3  
Month to date heating degree days 4 20  
Since 1 July heating degree days 16 87  
Cooling Degree Days 0 1  
Month to date cooling degree days 36 16  
Year to date cooling degree days 344 224  
Growing Degree Days 12 (Base 50)    
Moisture  
Dew Point 57 °F    
Average Humidity 82    
Maximum Humidity 90    
Minimum Humidity 73    
Precipitation  
Precipitation 0.46 in 0.04 in 0.85 in (1978)
Month to date precipitation 0.94 0.31  
Year to date precipitation 24.15 26.32  
Sea Level Pressure  
Sea Level Pressure 29.94 in    
Wind  
Wind Speed 10 mph (SSE)    
Max Wind Speed 21 mph    
Max Gust Speed 24 mph    
Visibility 10 miles    
Events Rain    
T = Trace of Precipitation, MM = Missing Value Source: NWS Daily Summary

Daily Weather History Graph

Daily Weather History Graph

Search for Another Location

Airport or City:

Astronomy

Sep. 09, 2019 Rise Set
Actual Time 6:45 AM PDT 7:34 PM PDT
Civil Twilight 6:15 AM PDT 8:03 PM PDT
Nautical Twilight 5:40 AM PDT 8:38 PM PDT
Astronomical Twilight 5:04 AM PDT 9:14 PM PDT
Moon 5:43 PM PDT (9/9) 2:10 AM PDT (9/9)
Length of Visible Light 13h 48m
Length of Day
12h 49m
Waxing Gibbous, 83% of the Moon is Illuminated
Sep 9
Waxing Gibbous
Sep 13
Full
Sep 21
Last Quarter
Sep 28
New
Oct 5
First Quarter

Hourly Weather History & Observations

Time (PDT) Temp. Dew Point Humidity Pressure Visibility Wind Dir Wind Speed Gust Speed Precip Events Conditions
12:27 AM 60.1 °F 57.0 °F 90% 29.97 in 10.0 mi South 10.4 mph - N/A   Overcast
12:54 AM 60.1 °F 57.0 °F 90% 29.97 in 10.0 mi South 8.1 mph - N/A   Overcast
1:54 AM 60.1 °F 57.9 °F 93% 29.96 in 10.0 mi South 5.8 mph - 0.11 in Rain Rain
2:54 AM 60.1 °F 57.9 °F 93% 29.97 in 10.0 mi SSE 5.8 mph - 0.10 in Rain Light Rain
3:11 AM 60.1 °F 57.9 °F 93% 29.97 in 10.0 mi SSE 4.6 mph - 0.05 in Rain Light Rain
3:28 AM 60.1 °F 57.9 °F 93% 29.97 in 10.0 mi South 4.6 mph - 0.07 in Rain Light Rain
3:37 AM 60.1 °F 57.0 °F 90% 29.96 in 10.0 mi SSE 5.8 mph - 0.07 in   Overcast
3:44 AM 59.0 °F 57.0 °F 93% 29.96 in 10.0 mi SSE 5.8 mph - 0.07 in   Mostly Cloudy
3:54 AM 60.1 °F 57.0 °F 90% 29.96 in 10.0 mi SSE 6.9 mph - 0.07 in   Overcast
4:16 AM 60.1 °F 57.0 °F 90% 29.96 in 10.0 mi South 8.1 mph - N/A   Overcast
4:54 AM 59.0 °F 55.9 °F 90% 29.94 in 10.0 mi SSE 9.2 mph - 0.00 in   Overcast
5:54 AM 59.0 °F 55.9 °F 90% 29.94 in 10.0 mi SSE 6.9 mph - 0.01 in Rain Light Rain
6:54 AM 60.1 °F 55.9 °F 86% 29.94 in 10.0 mi SSE 11.5 mph - 0.00 in Rain Light Rain
7:54 AM 60.1 °F 55.9 °F 86% 29.94 in 10.0 mi SSE 11.5 mph - 0.00 in   Overcast
8:54 AM 62.1 °F 55.0 °F 78% 29.94 in 10.0 mi SSE 10.4 mph - N/A   Overcast
9:54 AM 64.0 °F 55.0 °F 73% 29.94 in 10.0 mi SSE 13.8 mph - N/A   Mostly Cloudy
10:54 AM 63.0 °F 55.0 °F 75% 29.93 in 10.0 mi South 10.4 mph - 0.00 in   Overcast
11:54 AM 62.1 °F 55.9 °F 80% 29.94 in 10.0 mi South 13.8 mph - 0.01 in Rain Light Rain
12:54 PM 62.1 °F 57.0 °F 84% 29.94 in 10.0 mi South 12.7 mph - 0.07 in Rain Light Rain
1:54 PM 63.0 °F 57.9 °F 84% 29.93 in 10.0 mi South 17.3 mph - 0.01 in Rain Light Rain
2:54 PM 63.0 °F 59.0 °F 87% 29.93 in 10.0 mi South 12.7 mph - 0.03 in Rain Light Rain
3:28 PM 63.0 °F 60.1 °F 90% 29.93 in 10.0 mi SSE 8.1 mph - 0.03 in Rain Light Rain
3:54 PM 64.9 °F 60.1 °F 84% 29.92 in 10.0 mi SSE 10.4 mph - 0.05 in   Mostly Cloudy
4:54 PM 64.0 °F 60.1 °F 87% 29.92 in 10.0 mi South 10.4 mph - 0.00 in Rain Light Rain
5:54 PM 64.9 °F 59.0 °F 81% 29.91 in 10.0 mi SSE 6.9 mph - 0.00 in   Scattered Clouds
6:54 PM 64.0 °F 59.0 °F 84% 29.91 in 10.0 mi South 6.9 mph - 0.00 in Rain Light Rain
7:54 PM 62.1 °F 57.9 °F 86% 29.92 in 10.0 mi South 4.6 mph - 0.01 in   Mostly Cloudy
8:54 PM 61.0 °F 57.0 °F 87% 29.93 in 10.0 mi South 3.5 mph - 0.00 in   Mostly Cloudy
9:54 PM 59.0 °F 57.0 °F 93% 29.92 in 10.0 mi SSE 4.6 mph - N/A   Scattered Clouds
10:54 PM 57.9 °F 55.9 °F 93% 29.93 in 10.0 mi South 4.6 mph - N/A   Scattered Clouds
11:54 PM 59.0 °F 57.0 °F 93% 29.93 in 10.0 mi SSE 3.5 mph - N/A   Overcast